Wind_Speed
23 22 21 20 19 18 18 18 18 18 18 17 16 16 16 15 14 15 14 13 13 13 13 13 13 12 11 9 9 9 8 9 8 7 8 8 7 7 7 6 6 6
24 22 21 20 19 18 18 18 18 18 18 18 17 15 15 15 15 16 15 14 14 14 14 14 14 13 12 10 9 9 9 9 9 8 8 9 8 7 7 7 7 7
25 23 23 22 20 20 19 19 18 18 18 18 17 16 15 15 16 16 16 16 15 14 14 14 14 14 13 12 10 10 9 10 10 9 9 9 9 8 8 8 8 8
26 24 24 23 22 21 20 20 19 19 18 17 17 17 16 15 15 16 17 17 16 16 15 15 15 14 14 13 12 11 10 10 10 10 10 10 9 9 9 8 8 8
26 26 25 23 23 21 20 21 20 19 19 18 18 17 17 16 16 16 16 17 17 17 16 16 16 15 14 14 13 12 11 10 10 10 11 11 10 10 9 9 9 9
27 28 26 24 23 23 22 21 22 20 20 19 18 18 18 18 17 17 16 17 17 17 17 17 16 16 15 15 14 13 12 11 10 11 11 11 11 11 10 9 10 10
28 28 27 25 24 24 23 22 22 22 20 19 19 19 18 18 18 18 17 17 17 17 17 17 16 16 16 15 15 15 14 12 11 11 12 12 11 12 11 11 11 11
28 27 27 26 25 24 23 22 22 22 21 20 19 19 19 19 18 18 18 18 17 17 17 17 16 17 16 16 16 16 15 14 13 13 13 12 12 12 13 12 12 12
29 28 28 28 26 25 25 24 23 22 22 21 21 20 20 20 19 18 18 18 18 17 17 17 17 17 17 17 17 17 17 16 14 14 14 14 13 13 13 13 13 13
29 29 29 29 27 26 26 26 24 22 22 23 22 20 20 20 20 19 19 19 19 19 18 18 18 18 17 17 17 17 17 17 15 15 15 15 14 13 13 13 13 13
30 30 29 29 29 27 27 27 25 23 23 23 23 22 21 20 20 20 20 20 20 20 19 19 19 18 18 17 17 17 17 17 16 16 16 15 15 14 13 13 13 13
31 30 30 30 29 28 27 27 26 24 24 23 24 24 22 21 20 21 22 22 22 20 20 20 19 19 19 18 17 17 17 17 16 16 16 16 16 15 15 14 14 14
32 31 31 30 29 28 27 26 27 26 25 24 24 24 24 23 22 22 22 23 23 21 20 20 20 20 19 19 19 18 17 17 16 16 16 16 16 16 16 16 15 15
32 31 30 29 29 28 27 26 26 26 25 24 23 24 24 24 23 23 22 22 22 22 21 20 20 20 20 20 20 19 18 17 17 17 16 16 16 16 16 16 16 16
31 30 29 29 28 27 27 26 26 26 25 24 24 24 24 24 24 23 22 22 21 21 21 20 20 20 21 21 21 20 19 18 17 17 17 17 16 16 16 17 17 17
30 29 29 29 28 28 27 27 26 25 25 25 24 24 23 23 24 23 23 22 21 21 21 21 21 21 22 24 23 21 19 18 18 17 17 17 17 17 17 17 18 18
30 29 29 29 29 28 28 27 26 25 25 25 25 24 23 23 23 24 23 22 22 22 22 22 22 22 24 27 27 25 21 18 17 18 17 17 18 18 18 18 18 18
30 29 29 29 29 28 27 27 27 25 25 25 24 24 24 23 23 24 24 23 22 22 22 23 23 23 26 28 28 28 25 21 18 17 17 18 18 18 18 18 18 18
30 29 28 29 29 28 27 27 27 26 25 25 25 24 23 23 23 23 23 23 22 22 22 23 22 23 27 29 29 28 28 25 21 18 18 18 18 18 18 17 17 17
29 29 29 28 28 28 27 27 27 27 26 25 24 23 23 23 24 23 23 23 23 23 23 22 21 22 26 28 29 28 28 27 25 21 19 19 18 18 18 17 17 17
29 29 28 27 27 28 27 27 27 27 27 25 24 23 24 23 24 24 23 23 24 23 23 22 22 24 25 27 28 28 27 27 27 23 21 20 20 19 19 18 18 18
30 29 28 27 27 28 28 27 27 26 26 26 24 23 23 22 23 23 23 24 24 24 24 23 23 25 27 28 28 27 26 27 27 24 21 21 20 20 20 20 19 19
30 29 29 28 28 28 28 28 27 26 26 25 24 23 22 22 23 23 23 24 25 25 25 24 24 25 27 29 29 28 27 27 27 23 21 22 21 20 20 20 20 21
30 29 29 29 28 28 28 27 26 26 25 25 25 24 23 23 22 22 23 24 25 25 25 24 23 24 26 28 28 29 28 27 24 22 21 21 21 20 20 20 21 23
29 29 29 29 28 28 27 27 26 25 25 25 25 25 24 23 22 21 22 22 23 24 25 25 23 23 25 27 28 28 29 27 23 21 21 21 20 20 20 20 21 22
28 29 29 28 28 27 26 26 25 24 24 24 24 23 23 22 22 21 21 21 21 22 24 25 24 23 24 27 28 29 30 29 25 22 21 21 20 19 19 19 20 21
Wind_Direction
201 202 204 205 206 207 205 203 204 205 207 210 212 211 211 212 213 213 213 215 219 221 225 230 234 233 229 227 225 222 221 220 218 217 215 216 217 218 221 225 230 241
199 200 202 204 205 205 204 204 205 206 207 210 212 212 209 208 209 211 211 214 218 221 224 228 233 233 229 226 226 225 223 223 223 221 218 218 218 220 222 226 229 234
198 200 203 203 204 204 204 205 205 207 209 210 211 211 208 207 207 209 211 214 217 219 221 225 229 231 229 225 224 225 224 223 225 224 222 222 222 224 224 224 230 231
197 201 205 204 204 204 203 204 204 206 209 210 209 209 208 208 209 210 212 215 218 219 219 221 224 226 227 225 224 225 225 223 225 224 223 225 225 225 228 225 227 229
197 201 204 205 203 202 202 203 205 206 208 208 207 206 206 206 208 210 212 215 218 220 220 221 222 223 224 223 222 225 226 226 223 220 222 227 228 228 229 227 226 228
198 200 202 202 201 199 201 203 205 206 206 207 206 205 205 206 208 211 214 216 219 220 222 222 223 223 223 222 222 223 226 228 224 219 221 227 231 231 231 229 227 228
195 197 199 201 200 198 200 203 204 204 205 205 204 204 204 206 209 211 213 215 218 220 221 223 223 223 222 221 222 222 223 226 226 222 223 228 231 232 232 231 229 229
194 195 197 199 199 198 200 202 202 203 204 203 203 204 204 206 209 211 212 213 216 218 219 221 221 222 223 222 223 223 222 223 224 222 223 226 230 231 230 230 231 232
193 194 195 197 197 197 200 202 203 203 202 202 203 204 204 206 208 208 208 210 212 215 216 217 219 220 223 224 223 223 222 223 223 222 221 223 227 230 230 230 231 233
191 193 195 197 198 199 201 203 203 203 201 201 203 203 203 204 206 206 206 206 210 213 213 214 217 218 221 223 223 222 222 224 224 223 224 225 228 230 231 231 231 234
192 194 196 198 200 201 202 203 203 202 201 200 202 203 203 203 203 204 205 206 209 211 212 213 215 216 218 220 222 222 223 224 225 225 226 228 230 232 231 232 233 235
192 194 197 199 201 202 203 202 203 202 200 200 201 203 203 203 202 203 205 207 210 211 211 213 214 214 216 218 220 221 222 224 225 225 227 229 232 232 232 232 233 233
192 194 196 198 200 202 202 202 202 202 201 200 200 202 203 204 203 203 206 208 211 212 212 212 212 213 214 215 217 219 220 222 224 225 227 229 232 233 233 234 234 233
191 192 195 197 198 200 201 201 201 201 201 200 200 201 203 205 205 204 206 209 211 212 213 212 212 212 212 212 213 215 218 221 222 225 227 229 232 234 234 235 236 236
187 189 192 194 195 196 198 199 200 199 199 198 199 201 204 206 207 207 207 209 210 211 211 212 213 213 211 210 209 211 215 219 221 224 227 230 233 235 236 236 237 239
184 185 188 191 192 194 194 196 197 197 197 197 198 201 204 205 207 208 209 209 209 209 210 211 214 214 214 213 211 209 211 216 221 224 226 229 232 235 237 237 238 240
182 184 186 188 190 191 192 193 196 196 197 197 198 201 203 204 205 208 211 212 210 210 210 212 215 215 216 218 217 215 212 213 219 224 226 228 230 233 236 238 239 241
181 183 185 186 188 189 190 192 194 195 196 196 198 200 201 203 205 207 210 212 212 213 213 215 216 216 218 222 223 223 221 217 218 224 227 228 230 232 234 236 238 240
182 183 184 185 186 187 188 190 192 194 196 197 199 201 201 202 205 207 209 211 213 215 216 218 219 218 220 224 226 228 227 224 222 224 228 229 230 230 231 233 235 236
182 183 185 185 185 186 187 190 193 195 198 199 200 201 201 203 206 207 209 210 212 215 219 221 222 221 223 226 228 229 230 228 225 226 230 231 230 230 231 231 232 233
184 185 186 185 185 187 189 192 195 196 199 202 202 203 203 204 206 207 208 210 212 216 219 222 224 224 225 227 229 230 230 228 225 225 229 232 231 230 231 231 232 232
186 185 186 186 187 189 192 195 196 198 199 201 203 205 205 204 206 208 209 211 213 216 219 223 225 225 225 227 230 230 229 226 224 223 226 231 231 231 231 231 232 231
187 186 187 188 189 192 195 197 197 198 199 200 202 205 205 205 207 209 211 212 214 214 217 221 225 225 226 227 229 229 226 222 220 221 224 229 231 232 232 232 232 231
187 187 188 189 192 194 196 197 197 198 198 199 201 205 207 207 208 210 212 213 215 215 216 220 225 226 226 227 228 228 225 220 216 218 223 227 231 233 233 234 235 233
186 187 189 191 193 195 197 197 197 198 198 199 202 206 209 209 209 211 213 214 215 217 218 220 224 226 226 227 227 227 225 219 214 217 223 226 228 231 232 233 235 236
185 187 190 192 194 194 195 196 196 198 199 200 202 205 208 209 210 211 214 215 215 217 218 220 222 224 227 227 226 228 226 220 214 217 222 224 225 228 231 232 233 235
Height
817 820 822 825 827 829 831 832 835 837 839 840 842 844 845 848 849 851 852 853 854 855 856 857 858 860 861 861 862 863 863 864 864 865 865 866 867 868 869 869 870 870
814 817 820 822 824 826 828 830 832 834 836 838 840 842 844 846 847 849 851 852 853 854 855 856 857 858 859 860 861 861 862 863 863 864 864 865 866 866 867 868 868 869
811 814 816 819 821 823 825 828 830 831 834 836 838 840 841 843 845 847 849 850 852 853 854 855 855 856 858 859 860 860 861 862 862 863 864 864 865 865 866 867 867 868
807 810 813 816 818 821 823 825 827 829 831 833 835 837 839 841 843 845 847 848 850 851 852 853 854 855 856 857 858 859 859 860 861 862 863 863 864 864 865 865 866 867
804 807 810 813 815 818 820 822 824 826 828 830 832 835 837 839 840 842 844 846 847 849 850 851 852 853 855 855 856 857 858 858 859 860 861 862 862 863 864 864 865 865
801 804 807 810 812 815 817 819 821 823 825 828 830 832 834 836 838 840 842 843 845 847 848 849 850 852 853 854 855 855 856 857 857 858 859 860 861 861 862 863 863 864
797 800 803 806 809 811 814 816 818 820 823 825 827 829 831 833 835 837 839 840 842 844 845 847 848 849 851 852 853 854 854 855 856 857 857 858 859 860 860 861 862 862
793 796 800 803 805 808 810 813 815 817 820 822 824 826 828 830 832 833 836 838 839 841 843 844 846 847 848 850 851 851 852 853 854 855 855 856 857 858 858 859 860 860
789 792 796 799 802 804 807 809 812 814 817 819 821 823 825 827 829 831 833 834 836 838 840 841 843 844 846 847 848 849 850 851 852 852 853 854 855 855 856 857 858 858
785 788 792 795 797 800 803 806 808 811 813 815 818 820 822 824 826 828 830 831 833 835 836 838 840 841 843 844 845 846 847 848 849 850 851 851 852 853 854 855 855 856
780 784 787 790 793 796 799 802 805 807 810 812 814 817 819 820 822 824 826 828 829 831 833 835 836 838 839 841 842 843 844 845 846 848 848 849 850 850 851 852 853 853
776 779 783 786 789 792 795 798 801 803 806 808 810 813 815 817 819 821 823 824 826 828 830 831 833 835 836 838 839 840 841 843 844 845 846 846 847 848 849 849 850 850
770 774 778 781 785 788 791 794 797 799 802 804 807 809 812 814 815 817 819 820 822 824 826 828 829 831 833 834 836 837 839 840 841 842 843 844 844 845 846 846 847 848
765 770 774 777 781 785 788 791 793 796 798 801 803 806 808 810 812 814 815 817 819 821 823 824 826 827 829 830 832 834 835 837 838 839 840 841 841 842 843 844 844 845
761 766 770 774 778 781 784 787 790 793 795 798 800 802 804 806 808 810 812 814 815 817 819 821 822 823 824 826 828 830 832 833 835 836 837 838 839 839 840 841 841 842
758 762 766 770 774 777 780 784 787 790 792 794 797 799 801 803 805 807 809 810 812 813 815 817 818 819 820 822 824 826 828 830 832 833 834 835 836 836 837 838 838 839
754 758 762 766 770 773 777 780 783 786 788 791 793 795 798 800 802 804 805 807 808 810 811 812 813 814 816 817 820 822 825 827 828 829 830 831 832 833 834 834 835 836
750 755 758 762 766 769 773 776 780 783 785 788 790 792 794 796 798 800 802 803 805 806 807 808 809 810 812 814 816 818 821 824 825 826 827 828 829 829 830 831 832 832
747 751 755 758 762 766 770 773 776 779 781 784 786 788 791 793 795 797 798 800 802 803 804 805 806 807 808 810 812 814 817 820 822 823 824 824 825 826 827 828 828 829
743 747 751 755 758 762 766 769 772 775 777 780 783 785 787 789 791 793 795 797 798 800 801 802 803 804 804 806 809 811 813 816 818 820 820 821 822 823 823 824 825 826
739 743 747 751 755 759 762 765 768 771 774 777 779 781 783 785 787 790 791 793 795 796 798 799 799 800 801 803 805 807 810 812 814 816 817 818 818 819 820 821 821 822
735 740 744 748 752 755 758 761 764 767 770 773 775 778 780 782 784 786 787 789 791 792 794 795 796 797 798 800 802 804 807 809 811 813 814 814 815 816 816 817 818 819
732 736 740 744 748 751 754 757 760 763 766 769 772 774 776 778 780 781 783 785 786 788 789 791 792 793 794 796 799 801 804 806 808 809 810 811 811 812 813 814 814 815
728 732 736 740 743 746 750 753 757 760 763 765 768 770 772 774 776 777 779 780 782 783 785 786 788 789 790 792 795 797 800 803 805 806 807 807 808 809 810 810 811 811
724 728 732 736 739 743 746 750 753 756 759 761 764 766 768 770 772 774 775 776 778 780 781 783 784 785 787 788 791 793 796 799 801 802 803 804 805 806 806 807 807 808
721 724 728 732 736 739 743 747 750 753 755 758 760 762 765 767 768 770 771 773 774 776 777 779 780 782 783 784 786 789 791 794 797 798 799 800 801 802 803 803 804 804